When you browse on this site, cookies collect data to enhance your experience and personalize the content and advertising you see.
Visit our Privacy Policy to learn more. By continuing to use the site, you agree to this use of cookies and data.
  • In Romania
  • List of Countries
  • For 7 days
  • Water Temperature
  • Satellite Maps
  • Weather Map
  • Weather Widgets
  • user-avatar
    Login

    Hourly Weather Seoni

    Today, 19 July, Friday

    Time Temperature Precipitation Wind Pressure Humidity
    00:00 +27°C° 0 mm 0 mps 701 mmHg 66%
    01:00 +27°C° 0 mm 0 mps 700 mmHg 67%
    02:00 +27°C° 0 mm 0 mps 700 mmHg 68%
    03:00 +26°C° 0.3 mm 0 mps 700 mmHg 69%
    04:00 +26°C° 0.3 mm 0 mps 700 mmHg 71%
    05:00 +26°C° 0 mm 0 mps 700 mmHg 73%
    06:00 +29°C° 0.1 mm 1 mps 701 mmHg 68%
    07:00 +30°C° 0.1 mm 1 mps 701 mmHg 63%
    08:00 +32°C° 0.1 mm 1 mps 701 mmHg 58%
    09:00 +33°C° 0.1 mm 1 mps 701 mmHg 54%
    10:00 +35°C° 0.1 mm 2 mps 702 mmHg 50%
    11:00 +36°C° 0 mm 2 mps 702 mmHg 45%
    12:00 +36°C° 0 mm 2 mps 702 mmHg 45%
    13:00 +36°C° 0 mm 2 mps 701 mmHg 45%
    14:00 +36°C° 0 mm 2 mps 700 mmHg 45%
    15:00 +36°C° 0 mm 3 mps 700 mmHg 47%
    16:00 +35°C° 0 mm 3 mps 700 mmHg 49%
    17:00 +34°C° 0 mm 1 mps 700 mmHg 53%
    18:00 +32°C° 0.6 mm 1 mps 700 mmHg 60%
    19:00 +30°C° 0.6 mm 1 mps 700 mmHg 68%
    20:00 +29°C° 0.6 mm 1 mps 700 mmHg 75%
    21:00 +28°C° 0.5 mm 1 mps 700 mmHg 77%
    22:00 +28°C° 0.5 mm 2 mps 700 mmHg 79%
    23:00 +28°C° 0.5 mm 2 mps 700 mmHg 81%

    Tomorrow, 20 July, Saturday

    Time Temperature Precipitation Wind Pressure Humidity
    00:00 +28°C° 0 mm 2 mps 700 mmHg 81%
    01:00 +28°C° 0 mm 1 mps 700 mmHg 80%
    02:00 +28°C° 0 mm 1 mps 699 mmHg 80%
    03:00 +28°C° 0 mm 2 mps 699 mmHg 79%
    04:00 +28°C° 0 mm 2 mps 699 mmHg 78%
    05:00 +28°C° 0 mm 2 mps 699 mmHg 77%
    06:00 +28°C° 0.2 mm 2 mps 700 mmHg 77%
    07:00 +28°C° 0.2 mm 2 mps 701 mmHg 78%
    08:00 +28°C° 0.2 mm 2 mps 701 mmHg 78%
    09:00 +30°C° 1.1 mm 2 mps 701 mmHg 71%
    10:00 +32°C° 1.1 mm 2 mps 701 mmHg 64%
    11:00 +34°C° 1.1 mm 3 mps 701 mmHg 57%
    12:00 +35°C° 1.1 mm 3 mps 701 mmHg 55%
    13:00 +35°C° 1.1 mm 3 mps 700 mmHg 54%
    14:00 +36°C° 1.1 mm 3 mps 700 mmHg 52%
    15:00 +35°C° 0.2 mm 3 mps 700 mmHg 55%
    16:00 +35°C° 0.2 mm 3 mps 699 mmHg 57%
    17:00 +34°C° 0.2 mm 3 mps 699 mmHg 59%
    18:00 +32°C° 0.1 mm 2 mps 699 mmHg 63%
    19:00 +31°C° 0.1 mm 2 mps 699 mmHg 66%
    20:00 +30°C° 0.1 mm 1 mps 700 mmHg 70%
    21:00 +30°C° 0 mm 1 mps 700 mmHg 71%
    22:00 +29°C° 0 mm 1 mps 700 mmHg 72%
    23:00 +29°C° 0 mm 1 mps 700 mmHg 73%

    Day after tomorrow, 21 July, Sunday

    Time Temperature Precipitation Wind Pressure Humidity
    00:00 +29°C° 0.1 mm 1 mps 700 mmHg 76%
    01:00 +28°C° 0.1 mm 1 mps 700 mmHg 78%
    02:00 +28°C° 0.1 mm 1 mps 700 mmHg 81%
    03:00 +28°C° 0.1 mm 1 mps 700 mmHg 82%
    04:00 +27°C° 0.1 mm 2 mps 700 mmHg 83%
    05:00 +27°C° 0.1 mm 2 mps 700 mmHg 85%
    06:00 +28°C° 0.4 mm 2 mps 700 mmHg 81%
    07:00 +29°C° 0.4 mm 2 mps 701 mmHg 78%
    08:00 +30°C° 0.4 mm 3 mps 701 mmHg 75%
    09:00 +31°C° 1 mm 3 mps 701 mmHg 70%
    10:00 +33°C° 1 mm 3 mps 702 mmHg 65%
    11:00 +34°C° 1 mm 3 mps 702 mmHg 61%
    12:00 +34°C° 0.6 mm 2 mps 701 mmHg 60%
    13:00 +34°C° 0.6 mm 2 mps 701 mmHg 60%
    14:00 +35°C° 0.6 mm 2 mps 700 mmHg 59%
    15:00 +34°C° 0.5 mm 2 mps 700 mmHg 61%
    16:00 +34°C° 0.5 mm 2 mps 699 mmHg 62%
    17:00 +34°C° 0.5 mm 2 mps 699 mmHg 63%
    18:00 +32°C° 0.6 mm 2 mps 699 mmHg 68%
    19:00 +31°C° 0.6 mm 2 mps 700 mmHg 73%
    20:00 +30°C° 0.6 mm 1 mps 700 mmHg 77%
    21:00 +29°C° 2.5 mm 2 mps 700 mmHg 80%
    22:00 +29°C° 2.5 mm 2 mps 700 mmHg 83%
    23:00 +28°C° 2.5 mm 2 mps 700 mmHg 86%

    22 July, Monday

    Time Temperature Precipitation Wind Pressure Humidity
    00:00 +28°C° 0.3 mm 3 mps 700 mmHg 87%
    01:00 +27°C° 0.3 mm 3 mps 700 mmHg 88%
    02:00 +27°C° 0.3 mm 3 mps 699 mmHg 88%
    03:00 +27°C° 0.1 mm 3 mps 699 mmHg 90%
    04:00 +27°C° 0.1 mm 2 mps 699 mmHg 91%
    05:00 +27°C° 0.1 mm 2 mps 699 mmHg 92%
    06:00 +28°C° 0.4 mm 3 mps 700 mmHg 88%
    07:00 +29°C° 0.4 mm 3 mps 700 mmHg 83%
    08:00 +30°C° 0.4 mm 4 mps 701 mmHg 79%
    09:00 +32°C° 0.5 mm 4 mps 701 mmHg 73%
    10:00 +33°C° 0.5 mm 4 mps 701 mmHg 68%
    11:00 +34°C° 0.5 mm 3 mps 701 mmHg 63%
    12:00 +35°C° 0.1 mm 3 mps 700 mmHg 59%
    13:00 +35°C° 0.1 mm 3 mps 700 mmHg 56%
    14:00 +36°C° 0.1 mm 2 mps 699 mmHg 53%
    15:00 +36°C° 0 mm 2 mps 699 mmHg 53%
    16:00 +36°C° 0 mm 2 mps 699 mmHg 54%
    17:00 +34°C° 0 mm 1 mps 698 mmHg 55%
    18:00 +33°C° 0 mm 1 mps 699 mmHg 60%
    19:00 +32°C° 0 mm 2 mps 699 mmHg 64%
    20:00 +30°C° 0 mm 2 mps 699 mmHg 69%
    21:00 +30°C° 0 mm 2 mps 699 mmHg 71%
    22:00 +29°C° 0 mm 2 mps 699 mmHg 73%
    23:00 +29°C° 0 mm 3 mps 699 mmHg 76%

    23 July, Tuesday

    Time Temperature Precipitation Wind Pressure Humidity
    00:00 +29°C° 0 mm 3 mps 699 mmHg 78%
    01:00 +28°C° 0 mm 3 mps 699 mmHg 80%
    02:00 +28°C° 0 mm 3 mps 699 mmHg 82%
    03:00 +28°C° 0 mm 2 mps 699 mmHg 83%
    04:00 +28°C° 0 mm 2 mps 699 mmHg 85%
    05:00 +27°C° 0 mm 2 mps 699 mmHg 86%
    06:00 +28°C° 0.1 mm 2 mps 699 mmHg 84%
    07:00 +29°C° 0.1 mm 3 mps 700 mmHg 81%
    08:00 +29°C° 0.1 mm 3 mps 700 mmHg 79%
    09:00 +31°C° 0.1 mm 3 mps 700 mmHg 73%
    10:00 +33°C° 0.1 mm 3 mps 700 mmHg 66%
    11:00 +34°C° 0.1 mm 3 mps 700 mmHg 60%
    12:00 +35°C° 0.4 mm 3 mps 700 mmHg 59%
    13:00 +35°C° 0.4 mm 2 mps 699 mmHg 57%
    14:00 +35°C° 0.4 mm 2 mps 699 mmHg 56%
    15:00 +35°C° 0.2 mm 2 mps 698 mmHg 59%
    16:00 +34°C° 0.2 mm 2 mps 698 mmHg 63%
    17:00 +33°C° 0.2 mm 3 mps 698 mmHg 66%
    18:00 +31°C° 0.3 mm 2 mps 698 mmHg 70%
    19:00 +30°C° 0.3 mm 2 mps 698 mmHg 73%
    20:00 +29°C° 0.3 mm 2 mps 699 mmHg 76%
    21:00 +29°C° 0.5 mm 2 mps 699 mmHg 78%
    22:00 +29°C° 0.5 mm 1 mps 699 mmHg 80%
    23:00 +28°C° 0.5 mm 1 mps 699 mmHg 82%

    24 July, Wednesday

    Time Temperature Precipitation Wind Pressure Humidity
    00:00 +28°C° 1 mm 1 mps 699 mmHg 82%
    01:00 +28°C° 1 mm 2 mps 699 mmHg 82%
    02:00 +28°C° 1 mm 2 mps 698 mmHg 82%
    03:00 +28°C° 0.2 mm 2 mps 698 mmHg 84%
    04:00 +27°C° 0.2 mm 3 mps 698 mmHg 86%
    05:00 +27°C° 0.2 mm 3 mps 698 mmHg 88%
    06:00 +27°C° 0 mm 3 mps 699 mmHg 87%
    07:00 +27°C° 0 mm 3 mps 699 mmHg 87%
    08:00 +27°C° 0 mm 3 mps 699 mmHg 86%
    09:00 +28°C° 0.1 mm 3 mps 700 mmHg 82%
    10:00 +29°C° 0.1 mm 3 mps 700 mmHg 77%
    11:00 +30°C° 0.1 mm 3 mps 700 mmHg 72%
    12:00 +31°C° 0.9 mm 3 mps 699 mmHg 68%
    13:00 +33°C° 0.9 mm 3 mps 699 mmHg 64%
    14:00 +34°C° 0.9 mm 3 mps 698 mmHg 60%
    15:00 +34°C° 0.3 mm 2 mps 698 mmHg 61%
    16:00 +34°C° 0.3 mm 2 mps 698 mmHg 63%
    17:00 +32°C° 0.3 mm 2 mps 697 mmHg 65%
    18:00 +31°C° 0.8 mm 2 mps 698 mmHg 70%
    19:00 +30°C° 0.8 mm 2 mps 698 mmHg 75%
    20:00 +28°C° 0.8 mm 2 mps 699 mmHg 80%
    21:00 +28°C° 1.2 mm 2 mps 699 mmHg 83%
    22:00 +27°C° 1.2 mm 3 mps 699 mmHg 86%
    23:00 +26°C° 1.2 mm 3 mps 699 mmHg 89%
    Show more